Starlink 30819

operational
NORAD ID: 58179 Int'l Des: 2023-167 Owner: SPXS Country: US Constellation: starlink
LEOCIRCULAR

About Starlink 30819

Description loading...

Live Position

Loading 3D Globe...

Upcoming Passes

Altitude History

Altitude vs Time

uPlot chart will show altitude changes over time

Two-Line Element Set

1 58179U 23167E 26034.54189845 .00002944 00000-0 23292-3 0 9998
2 58179 43.0040 331.9048 0000810 275.7669 84.3081 15.02532720125810
Epoch: Feb 3, 2026 • Age: 9 hours

Current Status

Altitude 567.7 km
Velocity 7.58 km/s
Sub-Earth Point -32.68°S, 177.3°E
Launch Date Oct 30, 2023
Age 2.2 years
Type internet

Technical Details

Classification Payload
Mass 730.00 kg
Dry Mass 700.00 kg
Total Mass 730.00 kg
Length 0.30 m
Diameter 4.10 m
Span 29.00 m
Shape Box + pan
Manufacturer SPXS
Bus Type Starlink V2M
Phase Status In Orbit
Owner/State SPXS/US

Large Constellations

Loading constellations...